Regional Weather Roundup
Issued by NWS Jackson, KY

Home | Current Version | Previous Version | Text Only | Print | Product List | Glossary On
Versions: 1 2 3 4 5 6 7 8 9 10 11 12 13 14 15 16 17 18 19 20 21 22 23 24 25 26 27 28 29 30 31 32 33 34 35 36 37 38 39 40 41 42 43 44 45 46 47 48 49 50
657
ASUS43 KJKL 041410
RWRJKL

EAST KENTUCKY HOURLY WEATHER ROUNDUP
NATIONAL WEATHER SERVICE JACKSON KY
900 AM EST SUN DEC 04 2016

NOTE: "FAIR" INDICATES FEW OR NO CLOUDS BELOW 12,000 FEET WITH
NO SIGNIFICANT WEATHER AND/OR OBSTRUCTIONS TO VISIBILITY.

* THESE REPORTS ARE NOT UNDER NWS QUALITY CONTROL AND MAY NOT
  REPORT WEATHER SUCH AS PRECIPITATION AND FOG.

KYZ079-080-083-085-087-088-110-112-115-119-120-041500
...EASTERN KENTUCKY...

CITY           SKY/WX    TMP DP  RH WIND       PRES   REMARKS
JACKSON        CLOUDY    37  30  75 NE6       30.17R WCI  32
LONDON         LGT RAIN  39  35  86 N5        30.17R
SOMERSET*      DRIZZLE   37  37 100 E5        30.15F WCI  34
MONTICELLO*    CLOUDY    40  39  97 E5        30.14F
WILLIAMSBURG*  CLOUDY    37  37 100 CALM      30.16R
MIDDLESBORO*   DRIZZLE   39  39  98 W5        30.17S
HARLAN APT*    CLOUDY    41  37  87 E7G17     30.14F
PIKE CO APT*   CLOUDY    36  29  76 E3        30.16F
MOREHEAD APT*  CLOUDY    37  27  65 E7        30.21R WCI  32
ASHLAND*       CLOUDY    37  30  75 E3        30.22R
$$

KYZ035-036-041-042-044-050-067-078-099-041500
...CENTRAL KENTUCKY...

CITY           SKY/WX    TMP DP  RH WIND       PRES   REMARKS
MT STERLING*   RAIN      37  32  81 SE5       30.19F WCI  34
FLEMING/MASON* CLOUDY    36  29  77 E9        30.19F WCI  29
DANVILLE*      LGT RAIN  36  34  93 SE7       30.14F WCI  30
LEXINGTON      CLOUDY    39  32  76 E9        30.15F WCI  33
FRANKFORT      CLOUDY    39  32  76 E6        30.13F WCI  35
LOUISVILLE     CLOUDY    41  31  67 E8        30.12F
LEBANON*       CLOUDY    37  36  93 E6        30.12F WCI  33
GLASGOW*       CLOUDY   N/A N/A N/A E6        30.10S
BOWLING GREEN  CLOUDY    42  40  92 E7        30.10S
$$

KYZ091>093-OHZ055-061-077-WVZ005-015-034-035-042-041500
...SOUTHERN OHIO/WEST VIRGINIA...

CITY           SKY/WX    TMP DP  RH WIND       PRES   REMARKS
COVINGTON      CLOUDY    37  30  75 SE10      30.16F WCI  30
COLUMBUS       CLOUDY    36  29  75 SE10      30.20F WCI  28
DAYTON         CLOUDY    35  29  78 S6        30.19F WCI  30
WILMINGTON     CLOUDY    34  30  85 SE9       30.17F WCI  27
HUNTINGTON     CLOUDY    37  29  72 E5        30.21R WCI  33
CHARLESTON     CLOUDY    35  30  82 NE3       30.20F
PINEVILLE*       N/A     36  28  72 MISG      30.22F
BECKLEY        CLOUDY    33  24  69 SE7       30.16F WCI  27
BLUEFIELD      MIX PCPN  32  25  75 VRB7      30.17F WCI  26
LOGAN CO APT*  PTSUNNY   37  28  70 CALM      30.16S
$$

VAZ002-007-008-TNZ017-027-036-066-071-041500
...SOUTHWEST VIRGINIA/EAST TENNESSEE...

CITY           SKY/WX    TMP DP  RH WIND       PRES   REMARKS
WISE*          LGT RAIN  41  41 100 SE7       30.14F
JONESVILLE*    LGT RAIN  37  37 100 CALM      30.19R
ABINGDON*      LGT RAIN  38  36  93 E12       30.17F WCI  30
BRISTOL        LGT RAIN  38  36  92 E6        30.17F FOG     WCI  33
MORRISTOWN*    CLOUDY    39  39 100 E5        30.14R FOG
SEVIERVILLE*   CLOUDY    37  37 100 VRB3      30.13F
KNOXVILLE      LGT RAIN  40  37  89 NE12      30.12F FOG     WCI  33
OAK RIDGE      LGT RAIN  41  38  89 NE6       30.14F FOG
CROSSVILLE     CLOUDY    38  37  97 E5        30.11R WCI  34
NASHVILLE      CLOUDY    43  41  93 SE8       30.06F
$$

...KEY TO REMARKS...
VSB - VISIBILITY IN MILES
WCI - WIND CHILL INDEX
HX  - HEAT INDEX

$$




USA.gov is the U.S. government's official web portal to all federal, state and local government web resources and services.